Location: Newark
(41.8083°N, 72.2500°W)
Time: 10:41:58
(UTC+00:00)

Explorer 11/Cluster Stage 4 - Pass Details

Date: 06 December 2021
Orbit: 467 x 1255 km, 28.8° (Epoch: 24 January)

Event Time Altitude Azimuth Distance (km) Brightness Sun altitude
Rises 06:16:20 0° 229° (SW) 3,225 - -62.1°
Reaches altitude 10° 06:19:09 10° 214° (SW) 2,439 - -61.7°
Maximum altitude 06:23:35 22° 165° (SSE) 1,932 - -61.0°
Drops below altitude 10° 06:28:42 10° 118° (ESE) 2,868 - -60.2°
Sets 06:32:20 0° 105° (ESE) 3,956 - -59.6°
